DW6561 Weather Reports


time (UTC)temp
F
wind
direction
speed
knots
gust
knots
rain 1hr
in
rain 24hr
in
rain mn
in
humidity
%
barometer
mb
20260903063005 57 194 5.2 14.8 0.00 0.00 0.00 82 1008.5
20260903061504 57 219 5.2 13.0 0.00 0.00 0.00 81 1008.6
20260903060013 58 134 7.0 13.9 0.00 0.00 0.00 78 1008.6
20260903054518 58 123 4.3 12.2 0.00 0.00 0.00 79 1008.7
20260903053003 59 163 5.2 13.0 0.00 0.00 0.00 80 1008.7
20260903051506 59 59 5.2 13.0 0.00 0.00 0.00 78 1008.7
20260903050004 60 196 4.3 14.8 0.00 0.00 0.00 76 1008.8
20260903044504 60 181 6.1 10.4 0.00 0.00 0.00 76 1008.6
20260903043022 60 153 4.3 9.6 0.00 0.00 0.00 78 1008.5
20260903041505 60 126 5.2 13.0 0.00 0.00 0.00 78 1008.5
20260903040004 60 206 4.3 11.3 0.00 0.00 0.00 78 1008.4
20260903034510 61 212 3.5 7.8 0.00 0.00 0.00 76 1008.5
20260903033014 61 175 3.5 10.4 0.00 0.00 0.00 75 1008.4
20260903031527 61 230 3.5 10.4 0.00 0.00 0.00 74 1008.4
20260903030009 61 196 4.3 8.7 0.00 0.00 0.00 73 1008.2
20260903024510 61 188 4.3 7.8 0.00 0.00 0.00 75 1008.0
20260903023015 62 130 2.6 8.7 0.00 0.00 0.00 72 1007.9
20260903021516 63 225 1.7 7.0 0.00 0.00 0.00 67 1008.2
20260903020029 64 177 2.6 10.4 0.00 0.00 0.00 64 1008.2
20260903014536 64 157 2.6 9.6 0.00 0.00 0.00 62 1008.0
20260903013013 64 256 1.7 10.4 0.00 0.00 0.00 61 1008.0
20260903011520 64 205 4.3 11.3 0.00 0.00 0.00 60 1007.8
20260903010029 65 225 3.5 10.4 0.00 0.00 0.00 58 1007.4
20260903004506 65 238 1.7 14.8 0.00 0.00 0.00 57 1007.4
20260903003003 65 190 1.7 9.6 0.00 0.00 0.00 58 1007.4
20260903001504 65 230 0.0 9.6 0.00 0.00 0.00 60 1007.5
20260903000003 66 292 3.5 13.0 0.00 0.00 0.00 55 1007.4
20260902234504 67 134 1.7 12.2 0.00 0.00 0.00 51 1007.4
20260902233004 68 202 1.7 8.7 0.00 0.00 0.00 50 1007.4
20260902231503 68 224 1.7 6.1 0.00 0.00 0.00 53 1007.4
20260902230003 66 186 0.0 5.2 0.00 0.00 0.00 59 1007.4
20260902224504 66 188 1.7 8.7 0.00 0.00 0.00 61 1007.5
20260902223007 70 184 1.7 12.2 0.00 0.00 0.00 55 1007.3
20260902221508 74 187 0.0 3.5 0.00 0.00 0.00 42 1006.8
20260902220006 74 99 0.0 0.9 0.00 0.00 0.00 45 1006.7
20260902214509 75 99 0.0 1.7 0.00 0.00 0.00 43 1006.8
20260902213006 75 80 0.0 0.9 0.00 0.00 0.00 44 1006.8
20260902211507 76 102 0.0 2.6 0.00 0.00 0.00 42 1006.7
20260902210008 76 124 1.7 7.8 0.00 0.00 0.00 41 1006.7
20260902204510 76 126 0.0 7.8 0.00 0.00 0.00 40 1006.9
20260902203007 74 163 0.0 0.0 0.00 0.00 0.00 42 1007.0
20260902201508 74 191 0.0 7.0 0.00 0.00 0.00 43 1007.3
20260902200010 74 223 0.0 5.2 0.00 0.00 0.00 39 1007.5
20260902194524 75 178 0.0 7.0 0.00 0.00 0.00 41 1007.8
20260902193014 74 132 0.9 6.1 0.00 0.00 0.00 42 1008.0
20260902191512 74 186 0.0 9.6 0.00 0.00 0.00 42 1008.2
20260902190013 73 253 1.7 7.8 0.00 0.00 0.00 42 1008.4
20260902184514 73 165 0.9 8.7 0.00 0.00 0.00 43 1008.5
20260902183011 72 158 3.5 8.7 0.00 0.00 0.00 43 1008.7
20260902181516 71 130 3.5 8.7 0.00 0.00 0.00 44 1008.7
20260902180014 68 157 0.0 6.1 0.00 0.00 0.00 50 1008.8
20260902174514 67 172 2.6 8.7 0.00 0.00 0.00 50 1008.9
20260902173024 67 162 2.6 12.2 0.00 0.00 0.00 50 1008.9
20260902171518 66 210 1.7 11.3 0.00 0.00 0.00 52 1008.9
20260902170020 66 147 4.3 12.2 0.00 0.00 0.00 52 1008.8
20260902164517 64 173 3.5 11.3 0.00 0.00 0.00 56 1008.8
20260902163018 63 194 3.5 9.6 0.00 0.00 0.00 60 1008.8
20260902161533 62 202 5.2 12.2 0.00 0.00 0.00 61 1008.8
20260902160024 61 166 3.5 9.6 0.00 0.00 0.00 65 1009.0
20260902154506 60 120 3.5 8.7 0.00 0.00 0.00 67 1009.1
20260902153003 60 200 5.2 11.3 0.00 0.00 0.00 68 1009.3
20260902151503 59 139 3.5 8.7 0.00 0.00 0.00 70 1009.2
20260902150003 58 197 4.3 8.7 0.00 0.00 0.00 71 1009.1
20260902144506 58 215 3.5 11.3 0.00 0.00 0.00 72 1008.9
20260902143003 58 196 6.1 15.6 0.00 0.00 0.00 72 1008.6
20260902141502 58 164 7.8 16.5 0.00 0.00 0.00 72 1008.2
20260902140011 57 180 6.1 15.6 0.00 0.00 0.00 72 1008.1
20260902134516 57 145 5.2 10.4 0.00 0.00 0.00 73 1008.3
20260902133014 57 102 5.2 13.9 0.00 0.00 0.00 72 1008.4
20260902131512 57 195 4.3 11.3 0.00 0.00 0.00 72 1008.1
20260902130004 57 177 3.5 12.2 0.00 0.00 0.00 73 1008.0
20260902124504 57 157 5.2 10.4 0.00 0.00 0.00 73 1007.9
20260902123006 57 204 6.1 14.8 0.00 0.00 0.00 73 1008.2
20260902121515 57 206 7.0 16.5 0.00 0.00 0.00 74 1007.9
20260902120023 58 217 4.3 10.4 0.00 0.00 0.00 73 1008.1
20260902114510 60 166 4.3 12.2 0.00 0.00 0.00 67 1008.1
20260902113008 60 161 4.3 16.5 0.00 0.00 0.00 66 1008.1
20260902111511 60 150 6.1 15.6 0.00 0.00 0.00 67 1007.7
20260902110014 59 215 7.0 13.0 0.00 0.00 0.00 68 1007.6
20260902104545 59 281 6.1 13.9 0.00 0.00 0.00 68 1007.7
20260902103027 59 163 5.2 15.6 0.00 0.00 0.00 66 1007.4
20260902101514 59 144 6.1 13.9 0.00 0.00 0.00 66 1007.3
20260902100018 60 105 7.0 15.6 0.00 0.00 0.00 64 1007.4
20260902094516 60 178 5.2 14.8 0.00 0.00 0.00 63 1007.4
20260902093033 60 188 5.2 13.9 0.00 0.00 0.00 62 1007.2
20260902091531 61 136 3.5 13.0 0.00 0.00 0.00 61 1007.3
20260902090020 61 142 4.3 7.8 0.00 0.00 0.00 62 1007.6
20260902084502 61 199 3.5 11.3 0.00 0.00 0.00 62 1007.6
20260902083006 61 229 3.5 9.6 0.00 0.00 0.00 62 1007.6
20260902081504 62 115 4.3 13.0 0.00 0.00 0.00 61 1007.4
20260902080008 62 171 5.2 12.2 0.00 0.00 0.00 58 1007.5
20260902074505 63 161 5.2 13.0 0.00 0.00 0.00 58 1007.5
20260902073004 63 149 5.2 11.3 0.00 0.00 0.00 58 1007.3
20260902071504 64 186 4.3 12.2 0.00 0.00 0.00 57 1007.2
20260902070006 64 238 4.3 12.2 0.00 0.00 0.00 55 1006.9
20260902064507 64 215 4.3 13.9 0.00 0.00 0.00 54 1007.0